Year,Month,Day,Hour,Minute,Value (Times are PST for windspeed in km/hr)
2016,10,15,00,00,0.00
2016,10,15,00,01,0.00
2016,10,15,00,02,0.00
2016,10,15,00,03,0.00
2016,10,15,00,04,0.00
2016,10,15,00,05,0.00
2016,10,15,00,06,0.00
2016,10,15,00,07,0.00
2016,10,15,00,08,0.00
2016,10,15,00,09,0.00
2016,10,15,00,10,0.00
2016,10,15,00,11,0.00
2016,10,15,00,12,0.00
2016,10,15,00,13,0.00
2016,10,15,00,14,0.00
2016,10,15,00,15,0.00
2016,10,15,00,16,0.00
2016,10,15,00,17,0.00
2016,10,15,00,18,0.20
2016,10,15,00,19,0.90
2016,10,15,00,20,1.20
2016,10,15,00,21,1.70
2016,10,15,00,22,0.30
2016,10,15,00,23,0.00
2016,10,15,00,24,0.30
2016,10,15,00,25,0.40
2016,10,15,00,26,0.20
2016,10,15,00,27,0.60
2016,10,15,00,28,0.30
2016,10,15,00,29,0.10
2016,10,15,00,30,1.10
2016,10,15,00,31,0.70
2016,10,15,00,32,0.60
2016,10,15,00,33,0.10
2016,10,15,00,34,0.00
2016,10,15,00,35,0.00
2016,10,15,00,36,0.00
2016,10,15,00,37,0.00
2016,10,15,00,38,0.10
2016,10,15,00,39,0.40
2016,10,15,00,40,0.00
2016,10,15,00,41,0.00
2016,10,15,00,42,0.00
2016,10,15,00,43,0.00
2016,10,15,00,44,0.00
2016,10,15,00,45,0.00
2016,10,15,00,46,0.00
2016,10,15,00,47,0.00
2016,10,15,00,48,0.00
2016,10,15,00,49,0.00
2016,10,15,00,50,0.00
2016,10,15,00,51,0.00
2016,10,15,00,52,0.00
2016,10,15,00,53,0.80
2016,10,15,00,54,0.90
2016,10,15,00,55,0.80
2016,10,15,00,56,1.40
2016,10,15,00,57,0.40
2016,10,15,00,58,0.20
2016,10,15,00,59,0.00
2016,10,15,01,00,0.00
2016,10,15,01,01,0.00
2016,10,15,01,02,0.00
2016,10,15,01,03,0.00
2016,10,15,01,04,0.20
2016,10,15,01,05,0.80
2016,10,15,01,06,0.00
2016,10,15,01,07,0.00
2016,10,15,01,08,0.00
2016,10,15,01,09,0.00
2016,10,15,01,10,0.00
2016,10,15,01,11,0.00
2016,10,15,01,12,0.00
2016,10,15,01,13,0.00
2016,10,15,01,14,0.50
2016,10,15,01,15,0.50
2016,10,15,01,16,0.20
2016,10,15,01,17,0.20
2016,10,15,01,18,0.00
2016,10,15,01,19,0.00
2016,10,15,01,20,0.00
2016,10,15,01,21,0.00
2016,10,15,01,22,0.00
2016,10,15,01,23,0.00
2016,10,15,01,24,0.00
2016,10,15,01,25,0.00
2016,10,15,01,26,0.00
2016,10,15,01,27,0.00
2016,10,15,01,28,0.00
2016,10,15,01,29,0.00
2016,10,15,01,30,0.10
2016,10,15,01,31,0.00
2016,10,15,01,32,0.00
2016,10,15,01,33,0.00
2016,10,15,01,34,0.00
2016,10,15,01,35,0.00
2016,10,15,01,36,0.00
2016,10,15,01,37,0.00
2016,10,15,01,38,0.00
2016,10,15,01,39,0.00
2016,10,15,01,40,0.10
2016,10,15,01,41,0.00
2016,10,15,01,42,0.00
2016,10,15,01,43,0.80
2016,10,15,01,44,0.80
2016,10,15,01,45,0.30
2016,10,15,01,46,0.20
2016,10,15,01,47,1.00
2016,10,15,01,48,1.60
2016,10,15,01,49,0.60
2016,10,15,01,50,0.60
2016,10,15,01,51,0.60
2016,10,15,01,52,0.40
2016,10,15,01,53,0.20
2016,10,15,01,54,0.10
2016,10,15,01,55,0.10
2016,10,15,01,56,0.50
2016,10,15,01,57,0.40
2016,10,15,01,58,0.00
2016,10,15,01,59,0.00
2016,10,15,02,00,0.00
2016,10,15,02,01,0.00
2016,10,15,02,02,0.00
2016,10,15,02,03,0.00
2016,10,15,02,04,0.00
2016,10,15,02,05,0.00
2016,10,15,02,06,0.00
2016,10,15,02,07,0.00
2016,10,15,02,08,0.00
2016,10,15,02,09,0.90
2016,10,15,02,10,1.70
2016,10,15,02,11,0.60
2016,10,15,02,12,0.00
2016,10,15,02,13,0.00
2016,10,15,02,14,0.00
2016,10,15,02,15,0.00
2016,10,15,02,16,0.00
2016,10,15,02,17,0.00
2016,10,15,02,18,0.50
2016,10,15,02,19,1.30
2016,10,15,02,20,3.00
2016,10,15,02,21,3.00
2016,10,15,02,22,0.10
2016,10,15,02,23,0.00
2016,10,15,02,24,0.20
2016,10,15,02,25,0.10
2016,10,15,02,26,2.70
2016,10,15,02,27,1.80
2016,10,15,02,28,2.30
2016,10,15,02,29,0.70
2016,10,15,02,30,0.40
2016,10,15,02,31,0.00
2016,10,15,02,32,0.10
2016,10,15,02,33,0.00
2016,10,15,02,34,0.20
2016,10,15,02,35,0.00
2016,10,15,02,36,0.00
2016,10,15,02,37,0.00
2016,10,15,02,38,0.00
2016,10,15,02,39,0.00
2016,10,15,02,40,0.10
2016,10,15,02,41,0.50
2016,10,15,02,42,0.10
2016,10,15,02,43,0.00
2016,10,15,02,44,0.00
2016,10,15,02,45,0.10
2016,10,15,02,46,0.00
2016,10,15,02,47,0.00
2016,10,15,02,48,0.00
2016,10,15,02,49,0.00
2016,10,15,02,50,0.00
2016,10,15,02,51,0.10
2016,10,15,02,52,0.00
2016,10,15,02,53,0.00
2016,10,15,02,54,0.00
2016,10,15,02,55,0.00
2016,10,15,02,56,0.00
2016,10,15,02,57,0.00
2016,10,15,02,58,0.00
2016,10,15,02,59,0.00
2016,10,15,03,00,0.00
2016,10,15,03,01,0.00
2016,10,15,03,02,0.00
2016,10,15,03,03,0.00
2016,10,15,03,06,0.00
2016,10,15,03,07,0.00
2016,10,15,03,08,0.00
2016,10,15,03,09,0.50
2016,10,15,03,10,0.40
2016,10,15,03,11,0.10
2016,10,15,03,12,0.00
2016,10,15,03,13,0.00
2016,10,15,03,14,0.00
2016,10,15,03,15,0.00
2016,10,15,03,16,0.10
2016,10,15,03,17,0.00
2016,10,15,03,18,0.00
2016,10,15,03,19,0.10
2016,10,15,03,20,0.00
2016,10,15,03,21,0.00
2016,10,15,03,22,0.00
2016,10,15,03,23,0.00
2016,10,15,03,24,0.00
2016,10,15,03,25,0.00
2016,10,15,03,26,0.00
2016,10,15,03,27,0.00
2016,10,15,03,28,0.00
2016,10,15,03,29,0.00
2016,10,15,03,30,0.50
2016,10,15,03,31,1.30
2016,10,15,03,32,2.20
2016,10,15,03,33,2.00
2016,10,15,03,34,1.30
2016,10,15,03,35,0.00
2016,10,15,03,36,0.00
2016,10,15,03,37,0.00
2016,10,15,03,38,0.00
2016,10,15,03,39,0.00
2016,10,15,03,40,0.00
2016,10,15,03,41,0.00
2016,10,15,03,42,0.00
2016,10,15,03,43,0.00
2016,10,15,03,44,0.00
2016,10,15,03,45,0.00
2016,10,15,03,46,0.00
2016,10,15,03,47,0.00
2016,10,15,03,48,0.00
2016,10,15,03,49,0.00
2016,10,15,03,50,0.00
2016,10,15,03,51,0.00
2016,10,15,03,52,0.00
2016,10,15,03,53,0.00
2016,10,15,03,54,0.00
2016,10,15,03,55,0.00
2016,10,15,03,56,0.00
2016,10,15,03,57,0.00
2016,10,15,03,58,0.00
2016,10,15,03,59,0.00
2016,10,15,04,00,0.30
2016,10,15,04,01,1.10
2016,10,15,04,02,1.50
2016,10,15,04,03,3.90
2016,10,15,04,04,3.40
2016,10,15,04,05,4.60
2016,10,15,04,06,6.30
2016,10,15,04,07,4.70
2016,10,15,04,08,5.60
2016,10,15,04,09,3.40
2016,10,15,04,10,2.10
2016,10,15,04,11,2.10
2016,10,15,04,12,3.50
2016,10,15,04,13,1.90
2016,10,15,04,14,1.60
2016,10,15,04,15,3.00
2016,10,15,04,16,1.40
2016,10,15,04,17,0.00
2016,10,15,04,18,0.00
2016,10,15,04,19,0.10
2016,10,15,04,20,0.80
2016,10,15,04,21,2.00
2016,10,15,04,22,2.40
2016,10,15,04,23,5.70
2016,10,15,04,24,3.20
2016,10,15,04,25,2.40
2016,10,15,04,26,2.30
2016,10,15,04,27,0.90
2016,10,15,04,28,0.00
2016,10,15,04,29,0.00
2016,10,15,04,30,0.00
2016,10,15,04,31,0.00
2016,10,15,04,32,0.00
2016,10,15,04,33,0.00
2016,10,15,04,34,0.00
2016,10,15,04,35,0.00
2016,10,15,04,36,0.00
2016,10,15,04,37,0.20
2016,10,15,04,38,0.10
2016,10,15,04,39,0.20
2016,10,15,04,40,0.90
2016,10,15,04,41,1.00
2016,10,15,04,42,0.10
2016,10,15,04,43,0.10
2016,10,15,04,44,0.20
2016,10,15,04,45,0.10
2016,10,15,04,46,0.10
2016,10,15,04,47,0.00
2016,10,15,04,48,0.00
2016,10,15,04,49,0.10
2016,10,15,04,50,0.00
2016,10,15,04,51,1.00
2016,10,15,04,52,0.30
2016,10,15,04,53,0.00
2016,10,15,04,54,0.00
2016,10,15,04,55,0.00
2016,10,15,04,56,2.60
2016,10,15,04,57,3.50
2016,10,15,04,58,1.60
2016,10,15,04,59,3.60
2016,10,15,05,00,2.80
2016,10,15,05,01,0.60
2016,10,15,05,02,0.20
2016,10,15,05,03,0.40
2016,10,15,05,04,0.20
2016,10,15,05,05,0.60
2016,10,15,05,06,0.30
2016,10,15,05,07,0.20
2016,10,15,05,08,0.20
2016,10,15,05,09,0.10
2016,10,15,05,10,0.10
2016,10,15,05,11,0.00
2016,10,15,05,12,0.00
2016,10,15,05,13,0.00
2016,10,15,05,14,0.00
2016,10,15,05,15,0.00
2016,10,15,05,16,0.00
2016,10,15,05,17,0.00
2016,10,15,05,18,0.00
2016,10,15,05,19,0.00
2016,10,15,05,20,0.00
2016,10,15,05,21,0.00
2016,10,15,05,22,0.00
2016,10,15,05,23,0.00
2016,10,15,05,24,0.00
2016,10,15,05,25,0.00
2016,10,15,05,26,0.00
2016,10,15,05,27,0.00
2016,10,15,05,28,0.00
2016,10,15,05,29,0.00
2016,10,15,05,30,0.00
2016,10,15,05,31,0.00
2016,10,15,05,32,0.00
2016,10,15,05,33,0.00
2016,10,15,05,34,0.00
2016,10,15,05,35,0.00
2016,10,15,05,36,0.00
2016,10,15,05,37,0.00
2016,10,15,05,38,0.00
2016,10,15,05,39,0.00
2016,10,15,05,40,0.00
2016,10,15,05,41,0.00
2016,10,15,05,42,0.00
2016,10,15,05,43,0.00
2016,10,15,05,44,0.00
2016,10,15,05,45,0.00
2016,10,15,05,46,0.00
2016,10,15,05,47,0.00
2016,10,15,05,48,0.00
2016,10,15,05,49,0.00
2016,10,15,05,50,0.00
2016,10,15,05,51,0.00
2016,10,15,05,52,0.00
2016,10,15,05,53,0.00
2016,10,15,05,54,0.00
2016,10,15,05,55,0.00
2016,10,15,05,56,0.00
2016,10,15,05,57,0.00
2016,10,15,05,58,0.00
2016,10,15,05,59,0.00
2016,10,15,06,00,0.00
2016,10,15,06,01,0.00
2016,10,15,06,02,0.00
2016,10,15,06,03,0.00
2016,10,15,06,04,0.00
2016,10,15,06,05,0.00
2016,10,15,06,06,0.20
2016,10,15,06,07,0.20
2016,10,15,06,08,1.10
2016,10,15,06,09,1.70
2016,10,15,06,10,1.00
2016,10,15,06,11,1.50
2016,10,15,06,12,3.50
2016,10,15,06,13,0.30
2016,10,15,06,14,6.50
2016,10,15,06,15,4.80
2016,10,15,06,16,6.70
2016,10,15,06,17,3.50
2016,10,15,06,18,7.40
2016,10,15,06,19,4.10
2016,10,15,06,20,2.70
2016,10,15,06,21,1.70
2016,10,15,06,22,2.40
2016,10,15,06,23,3.10
2016,10,15,06,24,4.00
2016,10,15,06,25,2.10
2016,10,15,06,26,2.30
2016,10,15,06,27,1.30
2016,10,15,06,28,3.10
2016,10,15,06,29,4.10
2016,10,15,06,30,4.60
2016,10,15,06,31,4.60
2016,10,15,06,32,4.30
2016,10,15,06,33,4.30
2016,10,15,06,34,3.90
2016,10,15,06,35,4.10
2016,10,15,06,36,2.30
2016,10,15,06,37,3.60
2016,10,15,06,38,3.30
2016,10,15,06,39,5.60
2016,10,15,06,40,4.00
2016,10,15,06,41,4.00
2016,10,15,06,42,5.80
2016,10,15,06,43,6.90
2016,10,15,06,44,5.20
2016,10,15,06,45,4.70
2016,10,15,06,46,6.40
2016,10,15,06,47,1.10
2016,10,15,06,48,0.00
2016,10,15,06,49,0.00
2016,10,15,06,50,0.50
2016,10,15,06,51,2.70
2016,10,15,06,52,2.50
2016,10,15,06,53,1.80
2016,10,15,06,54,4.00
2016,10,15,06,55,4.90
2016,10,15,06,56,4.50
2016,10,15,06,57,7.20
2016,10,15,06,58,3.80
2016,10,15,06,59,3.90
2016,10,15,07,00,3.30
2016,10,15,07,01,2.80
2016,10,15,07,02,1.40
2016,10,15,07,03,0.10
2016,10,15,07,04,0.00
2016,10,15,07,05,2.10
2016,10,15,07,06,2.70
2016,10,15,07,07,2.80
2016,10,15,07,08,4.40
2016,10,15,07,09,3.30
2016,10,15,07,10,0.40
2016,10,15,07,11,1.00
2016,10,15,07,12,0.60
2016,10,15,07,13,5.50
2016,10,15,07,14,6.40
2016,10,15,07,15,7.00
2016,10,15,07,16,8.10
2016,10,15,07,17,6.40
2016,10,15,07,18,6.90
2016,10,15,07,19,6.20
2016,10,15,07,20,4.00
2016,10,15,07,21,4.40
2016,10,15,07,22,5.20
2016,10,15,07,23,1.40
2016,10,15,07,24,1.20
2016,10,15,07,25,0.10
2016,10,15,07,26,1.20
2016,10,15,07,27,2.20
2016,10,15,07,28,3.80
2016,10,15,07,29,5.10
2016,10,15,07,30,6.90
2016,10,15,07,31,9.30
2016,10,15,07,32,6.60
2016,10,15,07,33,5.60
2016,10,15,07,34,6.90
2016,10,15,07,35,7.00
2016,10,15,07,36,4.20
2016,10,15,07,37,5.60
2016,10,15,07,38,4.30
2016,10,15,07,39,4.50
2016,10,15,07,40,1.00
2016,10,15,07,41,4.10
2016,10,15,07,42,1.60
2016,10,15,07,43,0.30
2016,10,15,07,44,0.10
2016,10,15,07,45,1.80
2016,10,15,07,46,1.10
2016,10,15,07,47,5.90
2016,10,15,07,48,3.60
2016,10,15,07,49,0.10
2016,10,15,07,50,2.40
2016,10,15,07,51,4.30
2016,10,15,07,52,3.70
2016,10,15,07,53,3.00
2016,10,15,07,54,0.60
2016,10,15,07,55,1.00
2016,10,15,07,56,3.30
2016,10,15,07,57,2.10
2016,10,15,07,58,0.20
2016,10,15,07,59,0.30
2016,10,15,08,00,2.90
2016,10,15,08,01,5.20
2016,10,15,08,02,1.30
2016,10,15,08,03,0.20
2016,10,15,08,04,1.20
2016,10,15,08,05,1.00
2016,10,15,08,06,0.20
2016,10,15,08,07,1.30
2016,10,15,08,08,2.70
2016,10,15,08,09,3.30
2016,10,15,08,10,2.50
2016,10,15,08,11,1.50
2016,10,15,08,12,0.80
2016,10,15,08,13,1.50
2016,10,15,08,14,5.20
2016,10,15,08,15,6.40
2016,10,15,08,16,5.10
2016,10,15,08,17,5.60
2016,10,15,08,18,7.40
2016,10,15,08,19,3.50
2016,10,15,08,20,1.80
2016,10,15,08,21,0.50
2016,10,15,08,22,3.10
2016,10,15,08,23,2.60
2016,10,15,08,24,4.70
2016,10,15,08,25,6.40
2016,10,15,08,26,9.40
2016,10,15,08,27,9.90
2016,10,15,08,28,10.20
2016,10,15,08,29,10.70
2016,10,15,08,30,7.30
2016,10,15,08,31,6.20
2016,10,15,08,32,7.30
2016,10,15,08,33,4.90
2016,10,15,08,34,10.60
2016,10,15,08,35,7.90
2016,10,15,08,36,3.10
2016,10,15,08,37,9.10
2016,10,15,08,38,11.40
2016,10,15,08,39,12.40
2016,10,15,08,40,9.70
2016,10,15,08,41,14.30
2016,10,15,08,42,17.40
2016,10,15,08,43,14.80
2016,10,15,08,44,15.40
2016,10,15,08,45,17.30
2016,10,15,08,46,10.90
2016,10,15,08,47,15.50
2016,10,15,08,48,12.30
2016,10,15,08,49,14.40
2016,10,15,08,50,13.00
2016,10,15,08,51,8.80
2016,10,15,08,52,12.30
2016,10,15,08,53,15.90
2016,10,15,08,54,10.90
2016,10,15,08,55,18.50
2016,10,15,08,56,19.50
2016,10,15,08,57,26.90
2016,10,15,08,58,20.80
2016,10,15,08,59,23.70
2016,10,15,09,00,19.90
2016,10,15,09,01,14.00
2016,10,15,09,02,17.50
2016,10,15,09,03,7.50
2016,10,15,09,04,14.50
2016,10,15,09,05,14.00
2016,10,15,09,06,15.20
2016,10,15,09,07,18.20
2016,10,15,09,08,16.80
2016,10,15,09,09,18.50
2016,10,15,09,10,17.50
2016,10,15,09,11,18.80
2016,10,15,09,12,24.60
2016,10,15,09,13,19.50
2016,10,15,09,14,24.00
2016,10,15,09,15,25.70
2016,10,15,09,16,15.80
2016,10,15,09,17,19.60
2016,10,15,09,18,22.10
2016,10,15,09,19,24.80
2016,10,15,09,20,15.00
2016,10,15,09,21,20.60
2016,10,15,09,22,22.00
2016,10,15,09,23,19.10
2016,10,15,09,24,18.60
2016,10,15,09,25,12.50
2016,10,15,09,26,21.00
2016,10,15,09,27,12.90
2016,10,15,09,28,20.20
2016,10,15,09,29,21.90
2016,10,15,09,30,12.60
2016,10,15,09,31,11.30
2016,10,15,09,32,14.20
2016,10,15,09,33,17.70
2016,10,15,09,34,18.30
2016,10,15,09,35,17.60
2016,10,15,09,36,18.30
2016,10,15,09,37,19.50
2016,10,15,09,38,7.60
2016,10,15,09,39,13.70
2016,10,15,09,40,21.60
2016,10,15,09,41,21.10
2016,10,15,09,42,14.10
2016,10,15,09,43,14.80
2016,10,15,09,44,14.30
2016,10,15,09,45,17.60
2016,10,15,09,46,14.10
2016,10,15,09,47,17.70
2016,10,15,09,48,15.90
2016,10,15,09,49,23.50
2016,10,15,09,50,12.40
2016,10,15,09,51,20.80
2016,10,15,09,52,18.40
2016,10,15,09,53,21.20
2016,10,15,09,54,14.20
2016,10,15,09,55,10.70
2016,10,15,09,56,16.60
2016,10,15,09,57,19.60
2016,10,15,09,58,16.80
2016,10,15,09,59,16.60
2016,10,15,10,00,18.20
2016,10,15,10,01,27.40
2016,10,15,10,02,17.60
2016,10,15,10,03,16.30
2016,10,15,10,04,13.80
2016,10,15,10,05,19.50
2016,10,15,10,06,17.40
2016,10,15,10,07,14.50
2016,10,15,10,08,16.60
2016,10,15,10,09,17.00
2016,10,15,10,10,18.00
2016,10,15,10,11,22.50
2016,10,15,10,12,22.00
2016,10,15,10,13,18.90
2016,10,15,10,14,16.30
2016,10,15,10,15,12.80
2016,10,15,10,16,15.00
2016,10,15,10,17,31.10
2016,10,15,10,18,23.40
2016,10,15,10,19,21.00
2016,10,15,10,20,29.80
2016,10,15,10,21,19.10
2016,10,15,10,22,20.80
2016,10,15,10,23,17.80
2016,10,15,10,24,16.80
2016,10,15,10,25,16.90
2016,10,15,10,26,20.30
2016,10,15,10,27,16.20
2016,10,15,10,28,22.00
2016,10,15,10,29,17.50
2016,10,15,10,30,14.10
2016,10,15,10,31,17.70
2016,10,15,10,32,17.80
2016,10,15,10,33,19.90
2016,10,15,10,34,22.30
2016,10,15,10,35,21.70
2016,10,15,10,36,19.40
2016,10,15,10,37,10.10
2016,10,15,10,38,23.40
2016,10,15,10,39,20.90
2016,10,15,10,40,19.50
2016,10,15,10,41,26.30
2016,10,15,10,42,19.30
2016,10,15,10,43,22.00
2016,10,15,10,44,18.10
2016,10,15,10,45,14.80
2016,10,15,10,46,22.00
2016,10,15,10,47,23.20
2016,10,15,10,48,19.60
2016,10,15,10,49,21.40
2016,10,15,10,50,20.00
2016,10,15,10,51,26.80
2016,10,15,10,52,20.80
2016,10,15,10,53,17.50
2016,10,15,10,54,21.70
2016,10,15,10,55,17.20
2016,10,15,10,56,21.30
2016,10,15,10,57,17.90
2016,10,15,10,58,23.30
2016,10,15,10,59,20.80
2016,10,15,11,00,21.20
2016,10,15,11,01,20.10
2016,10,15,11,02,22.90
2016,10,15,11,03,23.40
2016,10,15,11,04,24.90
2016,10,15,11,05,19.30
2016,10,15,11,06,23.40
2016,10,15,11,07,21.50
2016,10,15,11,08,21.30
2016,10,15,11,09,21.20
2016,10,15,11,10,20.80
2016,10,15,11,11,17.50
2016,10,15,11,12,14.70
2016,10,15,11,13,18.40
2016,10,15,11,14,26.00
2016,10,15,11,15,27.60
2016,10,15,11,16,22.00
2016,10,15,11,17,20.70
2016,10,15,11,18,32.00
2016,10,15,11,19,33.00
2016,10,15,11,20,23.80
2016,10,15,11,21,23.80
2016,10,15,11,22,25.10
2016,10,15,11,23,27.70
2016,10,15,11,24,25.70
2016,10,15,11,25,19.80
2016,10,15,11,26,26.50
2016,10,15,11,27,29.90
2016,10,15,11,28,22.50
2016,10,15,11,29,26.00
2016,10,15,11,30,29.50
2016,10,15,11,31,18.10
2016,10,15,11,32,21.50
2016,10,15,11,33,24.90
2016,10,15,11,34,24.90
2016,10,15,11,35,25.00
2016,10,15,11,36,29.80
2016,10,15,11,37,20.20
2016,10,15,11,38,18.10
2016,10,15,11,39,17.50
2016,10,15,11,40,19.60
2016,10,15,11,41,18.90
2016,10,15,11,42,21.60
2016,10,15,11,43,14.60
2016,10,15,11,44,16.70
2016,10,15,11,45,21.60
2016,10,15,11,46,12.90
2016,10,15,11,47,20.10
2016,10,15,11,48,18.10
2016,10,15,11,49,21.00
2016,10,15,11,50,17.00
2016,10,15,11,51,12.90
2016,10,15,11,52,22.80
2016,10,15,11,53,24.30
2016,10,15,11,54,28.40
2016,10,15,11,55,16.30
2016,10,15,11,56,16.70
2016,10,15,11,57,19.80
2016,10,15,11,58,11.70
2016,10,15,11,59,12.70
2016,10,15,12,00,17.60
2016,10,15,12,01,19.20
2016,10,15,12,02,16.70
2016,10,15,12,03,20.00
2016,10,15,12,04,16.60
2016,10,15,12,05,13.20
2016,10,15,12,06,22.10
2016,10,15,12,07,20.90
2016,10,15,12,08,13.50
2016,10,15,12,09,12.90
2016,10,15,12,10,26.70
2016,10,15,12,11,19.60
2016,10,15,12,12,17.50
2016,10,15,12,13,15.10
2016,10,15,12,14,12.50
2016,10,15,12,15,20.00
2016,10,15,12,16,14.30
2016,10,15,12,17,13.80
2016,10,15,12,18,11.80
2016,10,15,12,19,17.00
2016,10,15,12,20,20.80
2016,10,15,12,21,20.50
2016,10,15,12,22,24.30
2016,10,15,12,23,25.00
2016,10,15,12,24,20.60
2016,10,15,12,25,13.80
2016,10,15,12,26,20.50
2016,10,15,12,27,25.40
2016,10,15,12,28,25.70
2016,10,15,12,29,27.10
2016,10,15,12,30,22.50
2016,10,15,12,31,18.20
2016,10,15,12,32,25.00
2016,10,15,12,33,29.90
2016,10,15,12,34,30.30
2016,10,15,12,35,24.80
2016,10,15,12,36,27.70
2016,10,15,12,37,18.40
2016,10,15,12,38,17.20
2016,10,15,12,39,25.00
2016,10,15,12,40,15.90
2016,10,15,12,41,19.00
2016,10,15,12,42,24.10
2016,10,15,12,43,18.30
2016,10,15,12,44,24.50
2016,10,15,12,45,26.80
2016,10,15,12,46,24.50
2016,10,15,12,47,25.50
2016,10,15,12,48,27.00
2016,10,15,12,49,16.50
2016,10,15,12,50,16.00
2016,10,15,12,51,25.30
2016,10,15,12,52,28.60
2016,10,15,12,53,22.10
2016,10,15,12,54,24.90
2016,10,15,12,55,25.40
2016,10,15,12,56,31.10
2016,10,15,12,57,23.40
2016,10,15,12,58,30.80
2016,10,15,12,59,29.70
2016,10,15,13,00,27.20
2016,10,15,13,01,31.00
2016,10,15,13,02,26.30
2016,10,15,13,03,22.00
2016,10,15,13,04,25.30
2016,10,15,13,05,24.90
2016,10,15,13,06,19.60
2016,10,15,13,07,20.80
2016,10,15,13,08,19.00
2016,10,15,13,09,22.90
2016,10,15,13,10,23.40
2016,10,15,13,11,19.90
2016,10,15,13,12,21.00
2016,10,15,13,13,22.50
2016,10,15,13,14,25.60
2016,10,15,13,15,22.90
2016,10,15,13,16,23.40
2016,10,15,13,17,17.00
2016,10,15,13,18,22.00
2016,10,15,13,19,22.30
2016,10,15,13,20,19.70
2016,10,15,13,21,19.30
2016,10,15,13,22,23.80
2016,10,15,13,23,25.20
2016,10,15,13,24,27.90
2016,10,15,13,25,23.30
2016,10,15,13,26,19.40
2016,10,15,13,27,17.60
2016,10,15,13,28,14.00
2016,10,15,13,29,19.10
2016,10,15,13,30,16.70
2016,10,15,13,31,21.30
2016,10,15,13,32,16.00
2016,10,15,13,33,19.60
2016,10,15,13,34,23.50
2016,10,15,13,35,26.40
2016,10,15,13,36,29.50
2016,10,15,13,37,25.70
2016,10,15,13,38,28.90
2016,10,15,13,39,16.90
2016,10,15,13,40,29.10
2016,10,15,13,41,35.80
2016,10,15,13,42,28.90
2016,10,15,13,43,35.10
2016,10,15,13,44,26.60
2016,10,15,13,45,24.10
2016,10,15,13,46,26.90
2016,10,15,13,47,23.30
2016,10,15,13,48,21.70
2016,10,15,13,49,25.30
2016,10,15,13,50,18.60
2016,10,15,13,51,20.10
2016,10,15,13,52,25.40
2016,10,15,13,53,28.20
2016,10,15,13,54,19.10
2016,10,15,13,55,26.10
2016,10,15,13,56,40.80
2016,10,15,13,57,33.80
2016,10,15,13,58,29.80
2016,10,15,13,59,33.00
2016,10,15,14,00,33.20
2016,10,15,14,01,36.50
2016,10,15,14,02,31.90
2016,10,15,14,03,46.20
2016,10,15,14,04,39.60
2016,10,15,14,05,31.90
2016,10,15,14,06,43.30
2016,10,15,14,07,43.00
2016,10,15,14,08,40.50
2016,10,15,14,09,34.00
2016,10,15,14,10,29.20
2016,10,15,14,11,23.60
2016,10,15,14,12,32.70
2016,10,15,14,13,41.80
2016,10,15,14,14,23.30
2016,10,15,14,15,28.30
2016,10,15,14,16,39.90
2016,10,15,14,17,37.50
2016,10,15,14,18,31.20
2016,10,15,14,19,33.00
2016,10,15,14,20,32.30
2016,10,15,14,21,40.10
2016,10,15,14,22,37.10
2016,10,15,14,23,27.10
2016,10,15,14,24,36.70
2016,10,15,14,25,48.20
2016,10,15,14,26,49.70
2016,10,15,14,27,39.50
2016,10,15,14,28,23.60
2016,10,15,14,29,37.70
2016,10,15,14,30,47.20
2016,10,15,14,31,43.90
2016,10,15,14,32,37.20
2016,10,15,14,33,34.30
2016,10,15,14,34,23.10
2016,10,15,14,35,37.80
2016,10,15,14,36,28.00
2016,10,15,14,37,23.30
2016,10,15,14,38,39.70
2016,10,15,14,39,29.20
2016,10,15,14,40,41.10
2016,10,15,14,41,39.20
2016,10,15,14,42,34.80
2016,10,15,14,43,28.80
2016,10,15,14,44,31.60
2016,10,15,14,45,32.30
2016,10,15,14,46,31.30
2016,10,15,14,47,22.30
2016,10,15,14,48,35.20
2016,10,15,14,49,32.40
2016,10,15,14,50,28.60
2016,10,15,14,51,27.70
2016,10,15,14,52,32.00
2016,10,15,14,53,23.90
2016,10,15,14,54,25.00
2016,10,15,14,55,16.50
2016,10,15,14,56,38.20
2016,10,15,14,57,32.40
2016,10,15,14,58,26.70
2016,10,15,14,59,25.50
2016,10,15,15,00,29.70
2016,10,15,15,01,27.40
2016,10,15,15,02,34.80
2016,10,15,15,03,35.20
2016,10,15,15,04,32.50
2016,10,15,15,05,22.00
2016,10,15,15,06,24.40
2016,10,15,15,07,27.50
2016,10,15,15,08,21.30
2016,10,15,15,09,23.60
2016,10,15,15,10,28.10
2016,10,15,15,11,22.80
2016,10,15,15,12,27.40
2016,10,15,15,13,37.10
2016,10,15,15,14,29.60
2016,10,15,15,15,21.70
2016,10,15,15,16,29.00
2016,10,15,15,17,26.10
2016,10,15,15,18,28.60
2016,10,15,15,19,36.60
2016,10,15,15,20,37.30
2016,10,15,15,21,22.20
2016,10,15,15,22,30.50
2016,10,15,15,23,29.60
2016,10,15,15,24,24.60
2016,10,15,15,25,37.10
2016,10,15,15,26,33.10
2016,10,15,15,27,32.90
2016,10,15,15,28,35.60
2016,10,15,15,29,38.10
2016,10,15,15,30,21.00
2016,10,15,15,31,21.80
2016,10,15,15,32,27.40
2016,10,15,15,33,21.80
2016,10,15,15,34,19.10
2016,10,15,15,35,26.90
2016,10,15,15,36,36.00
2016,10,15,15,37,26.60
2016,10,15,15,38,24.90
2016,10,15,15,39,30.80
2016,10,15,15,40,35.10
2016,10,15,15,41,26.10
2016,10,15,15,42,23.40
2016,10,15,15,43,25.60
2016,10,15,15,44,34.60
2016,10,15,15,45,30.90
2016,10,15,15,46,22.70
2016,10,15,15,47,25.80
2016,10,15,15,48,28.50
2016,10,15,15,49,30.80
2016,10,15,15,50,25.00
2016,10,15,15,51,28.00
2016,10,15,15,52,30.70
2016,10,15,15,53,22.00
2016,10,15,15,54,23.90
2016,10,15,15,55,25.10
2016,10,15,15,56,26.30
2016,10,15,15,57,24.10
2016,10,15,15,58,21.60
2016,10,15,15,59,29.60
2016,10,15,16,00,35.20
2016,10,15,16,01,28.90
2016,10,15,16,02,27.40
2016,10,15,16,03,25.00
2016,10,15,16,04,32.10
2016,10,15,16,05,30.70
2016,10,15,16,06,32.20
2016,10,15,16,07,25.30
2016,10,15,16,08,31.10
2016,10,15,16,09,21.80
2016,10,15,16,10,20.30
2016,10,15,16,11,23.50
2016,10,15,16,12,27.20
2016,10,15,16,13,24.20
2016,10,15,16,14,25.70
2016,10,15,16,15,22.90
2016,10,15,16,16,21.60
2016,10,15,16,17,23.00
2016,10,15,16,18,13.00
2016,10,15,16,19,21.10
2016,10,15,16,20,16.70
2016,10,15,16,21,14.50
2016,10,15,16,22,15.70
2016,10,15,16,23,25.30
2016,10,15,16,24,24.30
2016,10,15,16,25,27.70
2016,10,15,16,26,16.40
2016,10,15,16,27,29.10
2016,10,15,16,28,21.80
2016,10,15,16,29,21.60
2016,10,15,16,30,16.00
2016,10,15,16,31,15.20
2016,10,15,16,32,16.90
2016,10,15,16,33,18.80
2016,10,15,16,34,25.90
2016,10,15,16,35,17.00
2016,10,15,16,36,15.10
2016,10,15,16,37,12.50
2016,10,15,16,38,22.30
2016,10,15,16,39,30.20
2016,10,15,16,40,25.30
2016,10,15,16,41,16.90
2016,10,15,16,42,20.70
2016,10,15,16,43,20.80
2016,10,15,16,44,21.50
2016,10,15,16,45,19.60
2016,10,15,16,46,18.40
2016,10,15,16,47,12.60
2016,10,15,16,48,20.50
2016,10,15,16,49,16.80
2016,10,15,16,50,17.70
2016,10,15,16,51,10.90
2016,10,15,16,52,7.80
2016,10,15,16,53,11.80
2016,10,15,16,54,5.10
2016,10,15,16,55,4.30
2016,10,15,16,56,7.90
2016,10,15,16,57,16.70
2016,10,15,16,58,8.20
2016,10,15,16,59,6.10
2016,10,15,17,00,13.60
2016,10,15,17,01,13.70
2016,10,15,17,02,20.00
2016,10,15,17,03,10.90
2016,10,15,17,04,10.30
2016,10,15,17,05,14.20
2016,10,15,17,06,13.20
2016,10,15,17,07,13.20
2016,10,15,17,08,16.00
2016,10,15,17,09,17.60
2016,10,15,17,10,15.80
2016,10,15,17,11,14.70
2016,10,15,17,12,15.60
2016,10,15,17,13,14.20
2016,10,15,17,14,13.40
2016,10,15,17,15,15.40
2016,10,15,17,16,13.80
2016,10,15,17,17,14.70
2016,10,15,17,18,12.10
2016,10,15,17,19,15.10
2016,10,15,17,20,7.30
2016,10,15,17,21,8.10
2016,10,15,17,22,13.40
2016,10,15,17,23,13.00
2016,10,15,17,24,14.60
2016,10,15,17,25,14.60
2016,10,15,17,26,16.80
2016,10,15,17,27,14.10
2016,10,15,17,28,13.20
2016,10,15,17,29,13.20
2016,10,15,17,30,13.70
2016,10,15,17,31,14.60
2016,10,15,17,32,10.10
2016,10,15,17,33,11.20
2016,10,15,17,34,14.00
2016,10,15,17,35,8.90
2016,10,15,17,36,12.70
2016,10,15,17,37,10.40
2016,10,15,17,38,9.70
2016,10,15,17,39,7.70
2016,10,15,17,40,7.50
2016,10,15,17,41,9.40
2016,10,15,17,42,8.20
2016,10,15,17,43,10.90
2016,10,15,17,44,10.40